Regional Weather Roundup
Issued by NWS Cleveland, OH

Home | Current Version | Previous Version | Graphics & Text | Print | Product List | Glossary On
Versions: 1 2 3 4 5 6 7 8 9 10 11 12 13 14 15 16 17 18 19 20 21 22 23 24 25 26 27 28 29 30 31 32 33 34 35 36 37 38 39 40 41 42 43 44 45 46 47 48 49 50
000
ASUS41 KCLE 260400
RWRCLE
OHIO REGIONAL WEATHER ROUNDUP
NATIONAL WEATHER SERVICE WILMINGTON, OH
1200 AM EDT MON SEP 26 2016

NOTE: "FAIR" INDICATES FEW OR NO CLOUDS BELOW 12,000 FEET WITH NO
SIGNIFICANT WEATHER AND/OR OBSTRUCTIONS TO VISIBILITY.

OHZ001>008-015>018-024>027-034-035-043-044-260500-
   NORTHWEST OHIO

CITY           SKY/WX    TMP DP  RH WIND       PRES   REMARKS
DEFIANCE       FAIR      67  54  63 SE3       29.97F
FINDLAY        FAIR      68  52  56 SE8       29.99F
TOLEDO EXPRESS FAIR      62  56  80 E6        29.98F
TOLEDO EXEC    FAIR      61  56  83 SE6       30.00F
LIMA           FAIR      69  58  67 S9        30.01F
$$

OHZ009>014-019>023-028>033-038-089-260500-
   NORTHEAST OHIO

CITY           SKY/WX    TMP DP  RH WIND       PRES   REMARKS
CLE-HOPKINS    FAIR      64  44  48 SE5       30.05F
CLE-LAKEFRONT  FAIR      67  44  43 SE9       30.02F
CUY CO. ARPT   NOT AVBL
LORAIN-ELYRIA  FAIR      59  46  62 CALM      30.04S
ASHTABULA      FAIR      54  49  83 SE6       30.08F
AKRON-CANTON   FAIR      62  46  55 SE10      30.05F
WOOSTER        NOT AVBL
MANSFIELD      FAIR      64  49  57 S9        30.05S
YOUNGSTOWN     FAIR      56  47  71 SE8       30.07F
$$

OHZ042-051>053-060>062-070>072-077>081-260500-
  SOUTHWEST OHIO

CITY           SKY/WX    TMP DP  RH WIND       PRES   REMARKS
CINC-COVINGTON FAIR      72  65  78 S3        30.03F
CINC-LUNKEN    FAIR      66  66 100 CALM      30.02F FOG
HAMILTON       FAIR      65  63  93 CALM      30.02F
DAYTON         NOT AVBL
WRIGHT-PAT AFB NOT AVBL
DAYTON GENERAL FAIR      71  63  75 SE5       30.02F
WILMINGTON     FAIR      65  62  90 CALM      30.03F
$$

OHZ036-037-039>041-045>050-054>059-063>069-073>076-082>088-260500-
  CENTRAL AND SOUTHEAST OHIO

CITY           SKY/WX    TMP DP  RH WIND       PRES   REMARKS
COLUMBUS       FAIR      68  51  54 E3        30.03F
OSU AIRPORT    FAIR      69  49  48 S5        30.04S
BOLTON FIELD   NOT AVBL
RICKENBACK AFB NOT AVBL
NEWARK         FAIR      58  55  90 CALM      30.04S
MARION         FAIR      63  49  60 S6        30.04S
LANCASTER      FAIR      60  55  83 CALM      30.04S
ZANESVILLE     FAIR      58  51  78 CALM      30.05S
NEW PHILLY     FAIR      56  50  80 CALM      30.06F
$$




USA.gov is the U.S. government's official web portal to all federal, state and local government web resources and services.